{"data":{"norad_id":62122,"epoch":"2026-09-20T23:03:40.839840Z","epoch_age_seconds":141979,"freshness":"FRESH","line1":"1 62122U 24222J   26263.96088935  .00007101  00000+0  26730-3 0  9991","line2":"2 62122  43.0041 113.3549 0001403 262.7392  97.3300 15.27584246102786","mean_motion":15.27584246,"eccentricity":0.0001403,"inclination_deg":43.0041,"raan_deg":113.3549,"arg_perigee_deg":262.7392,"mean_anomaly_deg":97.33,"bstar":0.0002673,"rev_number":10278,"period_min":94.266486694312,"perigee_km":482.07375939212,"apogee_km":483.99900464311,"semimajor_km":6861.1733820176,"source":"CELESTRAK","updated_at":"2026-09-22T09:00:49.525273Z"}}